Radiation Dose at Monitoring Post of Fukushima Daini Nuclear Power Station
Date,Time,MP-1(microSv/h),MP-2(microSv/h),MP-3(microSv/h),MP-4(microSv/h),MP-5(microSv/h),MP-6(microSv/h),MP-7(microSv/h),Wind Direction,Wind Velocity(m/s),Rain
2017/01/05,00:00,0.394,0.237,0.406,0.376,0.342,0.193,0.167,north,2.6,No
2017/01/05,00:10,0.393,0.238,0.405,0.376,0.341,0.194,0.166,north,2.8,No
2017/01/05,00:20,0.392,0.237,0.408,0.377,0.341,0.194,0.167,north,2.5,No
2017/01/05,00:30,0.392,0.238,0.405,0.377,0.344,0.195,0.167,north,3.5,No
2017/01/05,00:40,0.395,0.236,0.407,0.378,0.341,0.195,0.168,north,3.1,No
2017/01/05,00:50,0.394,0.237,0.408,0.377,0.343,0.194,0.167,north,2.2,No
2017/01/05,01:00,0.392,0.237,0.407,0.377,0.344,0.196,0.167,north-northwest,1.7,No
2017/01/05,01:10,0.394,0.237,0.406,0.377,0.343,0.194,0.168,northwest,1.8,No
2017/01/05,01:20,0.394,0.237,0.408,0.378,0.343,0.195,0.167,north-northwest,2.6,No
2017/01/05,01:30,0.393,0.237,0.406,0.377,0.341,0.195,0.168,northwest,2.8,No
2017/01/05,01:40,0.395,0.238,0.408,0.378,0.342,0.195,0.168,northwest,1.9,No
2017/01/05,01:50,0.394,0.237,0.407,0.378,0.343,0.196,0.167,northwest,2.0,No
2017/01/05,02:00,0.392,0.237,0.408,0.378,0.342,0.195,0.168,northwest,2.2,No
2017/01/05,02:10,0.393,0.238,0.406,0.376,0.342,0.197,0.167,northwest,2.2,No
2017/01/05,02:20,0.395,0.238,0.405,0.378,0.342,0.194,0.167,north-northwest,3.6,No
2017/01/05,02:30,0.393,0.237,0.406,0.377,0.342,0.195,0.168,north,3.3,No
2017/01/05,02:40,0.392,0.238,0.408,0.377,0.342,0.195,0.167,north-northwest,4.5,No
2017/01/05,02:50,0.393,0.236,0.406,0.377,0.342,0.195,0.167,northwest,3.6,No
2017/01/05,03:00,0.394,0.237,0.407,0.377,0.341,0.195,0.167,northwest,3.3,No
2017/01/05,03:10,0.392,0.237,0.407,0.377,0.340,0.195,0.167,north-northwest,4.1,No
2017/01/05,03:20,0.394,0.237,0.406,0.376,0.341,0.195,0.166,north-northwest,4.0,No
2017/01/05,03:30,0.394,0.238,0.407,0.378,0.342,0.195,0.168,north-northwest,4.8,No
2017/01/05,03:40,0.392,0.237,0.407,0.377,0.342,0.195,0.166,north,7.0,No
2017/01/05,03:50,0.395,0.236,0.410,0.376,0.342,0.195,0.167,north-northwest,6.1,No
2017/01/05,04:00,0.395,0.238,0.405,0.376,0.343,0.195,0.168,north,5.0,No
2017/01/05,04:10,0.395,0.237,0.407,0.379,0.340,0.197,0.166,north,4.2,No
2017/01/05,04:20,0.394,0.237,0.408,0.379,0.342,0.194,0.168,north-northwest,3.4,No
2017/01/05,04:30,0.394,0.237,0.408,0.377,0.341,0.195,0.167,north,3.1,No
2017/01/05,04:40,0.395,0.237,0.406,0.378,0.342,0.195,0.168,north-northwest,1.4,No
2017/01/05,04:50,0.394,0.237,0.408,0.378,0.342,0.194,0.167,north-northwest,2.5,No
2017/01/05,05:00,0.393,0.238,0.407,0.376,0.341,0.194,0.167,north,1.7,No
2017/01/05,05:10,0.394,0.237,0.407,0.377,0.341,0.194,0.167,north,1.4,No
2017/01/05,05:20,0.394,0.236,0.406,0.377,0.341,0.195,0.167,north-northwest,2.5,No
2017/01/05,05:30,0.395,0.238,0.406,0.379,0.342,0.194,0.166,north-northwest,2.7,No
2017/01/05,05:40,0.395,0.238,0.408,0.378,0.343,0.195,0.166,northwest,4.3,No
2017/01/05,05:50,0.392,0.236,0.406,0.376,0.341,0.194,0.166,northwest,4.5,No
2017/01/05,06:00,0.393,0.237,0.407,0.375,0.341,0.195,0.167,northwest,3.4,No
2017/01/05,06:10,0.395,0.237,0.407,0.378,0.340,0.195,0.167,northwest,4.3,No
2017/01/05,06:20,0.394,0.237,0.406,0.378,0.341,0.195,0.167,northwest,4.4,No
2017/01/05,06:30,0.394,0.236,0.407,0.377,0.341,0.195,0.167,northwest,5.4,No
2017/01/05,06:40,0.393,0.237,0.408,0.377,0.340,0.195,0.166,northwest,5.9,No
2017/01/05,06:50,0.395,0.236,0.408,0.378,0.340,0.195,0.167,northwest,5.8,No
2017/01/05,07:00,0.394,0.236,0.407,0.377,0.339,0.194,0.167,northwest,4.2,No
2017/01/05,07:10,0.393,0.237,0.407,0.375,0.341,0.195,0.167,northwest,3.4,No
2017/01/05,07:20,0.392,0.238,0.409,0.377,0.340,0.194,0.167,north,3.4,No
2017/01/05,07:30,0.394,0.237,0.405,0.375,0.341,0.195,0.166,north-northwest,3.2,No
2017/01/05,07:40,0.393,0.237,0.406,0.376,0.340,0.195,0.166,north,2.3,No
2017/01/05,07:50,0.394,0.238,0.406,0.377,0.341,0.195,0.167,north-northwest,4.0,No
2017/01/05,08:00,0.394,0.238,0.407,0.377,0.341,0.195,0.167,north-northwest,4.1,No
2017/01/05,08:10,0.394,0.236,0.405,0.376,0.341,0.194,0.167,north-northwest,5.0,No
2017/01/05,08:20,0.394,0.236,0.407,0.376,0.340,0.196,0.167,north-northwest,6.3,No
2017/01/05,08:30,0.394,0.236,0.407,0.378,0.341,0.195,0.166,north-northwest,9.1,No
2017/01/05,08:40,0.394,0.236,0.406,0.377,0.341,0.194,0.167,north-northwest,7.5,No
2017/01/05,08:50,0.394,0.236,0.406,0.376,0.343,0.195,0.167,north,8.9,No
2017/01/05,09:00,0.396,0.236,0.407,0.376,0.341,0.196,0.168,north-northwest,7.8,No
2017/01/05,09:10,0.394,0.236,0.406,0.377,0.342,0.194,0.166,north-northwest,7.0,No
2017/01/05,09:20,0.393,0.235,0.407,0.376,0.341,0.193,0.167,north-northwest,9.9,No
2017/01/05,09:30,0.391,0.237,0.408,0.377,0.342,0.194,0.167,north-northwest,8.4,No
2017/01/05,09:40,0.394,0.236,0.408,0.376,0.340,0.195,0.169,northwest,6.0,No
2017/01/05,09:50,0.393,0.237,0.406,0.377,0.341,0.195,0.166,north-northwest,7.9,No
2017/01/05,10:00,0.394,0.238,0.406,0.377,0.344,0.195,0.166,north-northwest,9.3,No
2017/01/05,10:10,0.393,0.236,0.408,0.377,0.342,0.192,0.166,north-northwest,10.8,No
2017/01/05,10:20,0.393,0.238,0.408,0.377,0.341,0.195,0.167,north,8.4,No
2017/01/05,10:30,0.393,0.237,0.407,0.374,0.342,0.196,0.167,north-northwest,6.9,No
2017/01/05,10:40,0.392,0.237,0.409,0.375,0.342,0.196,0.167,north-northwest,9.9,No
2017/01/05,10:50,0.393,0.237,0.408,0.376,0.340,0.195,0.167,north-northwest,8.4,No
2017/01/05,11:00,0.395,0.236,0.406,0.375,0.342,0.195,0.167,north-northwest,8.1,No
2017/01/05,11:10,0.395,0.237,0.406,0.379,0.341,0.194,0.167,north,9.3,No
2017/01/05,11:20,0.393,0.237,0.405,0.377,0.340,0.195,0.168,northwest,8.9,No
2017/01/05,11:30,0.394,0.237,0.408,0.376,0.342,0.195,0.166,north-northwest,9.2,No
2017/01/05,11:40,0.393,0.237,0.407,0.378,0.344,0.194,0.167,north-northwest,11.6,No
2017/01/05,11:50,0.395,0.238,0.408,0.375,0.344,0.195,0.167,north-northwest,10.0,No
2017/01/05,12:00,0.395,0.237,0.406,0.377,0.341,0.194,0.167,north-northwest,10.5,No
2017/01/05,12:10,0.392,0.237,0.406,0.378,0.342,0.195,0.167,north,11.6,No
2017/01/05,12:20,0.395,0.236,0.408,0.375,0.340,0.195,0.167,north-northwest,6.4,No
2017/01/05,12:30,0.392,0.237,0.407,0.377,0.342,0.194,0.166,north-northwest,7.7,No
2017/01/05,12:40,0.393,0.237,0.406,0.376,0.343,0.195,0.168,north,9.6,No
2017/01/05,12:50,0.395,0.237,0.409,0.376,0.343,0.195,0.167,north-northwest,10.7,No
2017/01/05,13:00,0.394,0.237,0.406,0.380,0.342,0.195,0.168,north-northwest,11.7,No
2017/01/05,13:10,0.395,0.238,0.407,0.378,0.343,0.196,0.167,north-northwest,9.0,No
2017/01/05,13:20,0.396,0.237,0.409,0.378,0.343,0.195,0.167,northwest,9.0,No
2017/01/05,13:30,0.395,0.238,0.406,0.377,0.342,0.195,0.167,north,6.4,No
2017/01/05,13:40,0.393,0.237,0.408,0.376,0.343,0.195,0.166,north-northwest,8.1,No
2017/01/05,13:50,0.395,0.238,0.406,0.380,0.344,0.195,0.168,north-northwest,9.3,No
2017/01/05,14:00,0.395,0.237,0.406,0.375,0.343,0.195,0.167,north-northwest,10.4,No
2017/01/05,14:10,0.394,0.236,0.408,0.376,0.341,0.194,0.168,north-northwest,9.0,No
2017/01/05,14:20,0.394,0.237,0.409,0.376,0.342,0.195,0.166,north-northwest,8.1,No
2017/01/05,14:30,0.394,0.237,0.407,0.377,0.343,0.195,0.167,north,10.5,No
2017/01/05,14:40,0.395,0.237,0.406,0.377,0.342,0.194,0.167,north,10.4,No
2017/01/05,14:50,0.394,0.237,0.411,0.379,0.342,0.195,0.168,north-northwest,9.0,No
2017/01/05,15:00,0.395,0.237,0.408,0.376,0.344,0.195,0.167,north-northwest,7.8,No
2017/01/05,15:10,0.397,0.237,0.405,0.379,0.341,0.195,0.168,north-northwest,8.2,No
2017/01/05,15:20,0.397,0.238,0.408,0.377,0.343,0.194,0.167,north-northwest,4.5,No
2017/01/05,15:30,0.394,0.237,0.408,0.378,0.343,0.195,0.168,north-northwest,6.3,No
2017/01/05,15:40,0.395,0.238,0.408,0.379,0.343,0.196,0.167,north-northwest,8.1,No
2017/01/05,15:50,0.396,0.237,0.408,0.379,0.342,0.194,0.168,northwest,10.4,No
2017/01/05,16:00,0.394,0.237,0.408,0.380,0.342,0.195,0.167,north-northwest,9.1,No
2017/01/05,16:10,0.395,0.237,0.410,0.380,0.342,0.196,0.167,north-northwest,9.5,No
2017/01/05,16:20,0.397,0.236,0.409,0.378,0.343,0.196,0.167,northwest,7.5,No
2017/01/05,16:30,0.396,0.237,0.409,0.378,0.342,0.195,0.166,north-northwest,10.8,No
2017/01/05,16:40,0.394,0.237,0.409,0.378,0.343,0.194,0.167,northwest,8.5,No
2017/01/05,16:50,0.395,0.238,0.409,0.380,0.344,0.194,0.167,north-northwest,10.0,No
2017/01/05,17:00,0.394,0.237,0.409,0.378,0.343,0.195,0.167,north-northwest,8.8,No
2017/01/05,17:10,0.397,0.238,0.408,0.377,0.344,0.194,0.167,north-northwest,8.4,No
2017/01/05,17:20,0.395,0.237,0.410,0.378,0.342,0.195,0.168,north-northwest,7.5,No
2017/01/05,17:30,0.394,0.237,0.409,0.379,0.342,0.196,0.167,north-northwest,9.4,No
2017/01/05,17:40,0.395,0.237,0.408,0.378,0.343,0.195,0.167,north-northwest,11.8,No
2017/01/05,17:50,0.395,0.237,0.408,0.378,0.342,0.195,0.167,north-northwest,10.6,No
2017/01/05,18:00,0.396,0.237,0.411,0.377,0.343,0.195,0.167,north,10.9,No
2017/01/05,18:10,0.394,0.239,0.409,0.380,0.342,0.197,0.167,north-northwest,9.9,No
2017/01/05,18:20,0.394,0.237,0.410,0.378,0.342,0.196,0.167,north-northwest,11.6,No
2017/01/05,18:30,0.395,0.238,0.408,0.378,0.341,0.194,0.168,north-northwest,12.2,No
2017/01/05,18:40,0.396,0.237,0.409,0.377,0.340,0.194,0.168,north-northwest,11.1,No
2017/01/05,18:50,0.395,0.237,0.410,0.377,0.341,0.196,0.167,north-northwest,9.9,No
2017/01/05,19:00,0.395,0.238,0.409,0.378,0.342,0.194,0.167,north-northwest,10.5,No
2017/01/05,19:10,0.395,0.237,0.410,0.377,0.342,0.195,0.168,north-northwest,9.7,No
2017/01/05,19:20,0.395,0.237,0.408,0.378,0.343,0.195,0.168,north,10.4,No
2017/01/05,19:30,0.397,0.237,0.410,0.378,0.342,0.195,0.168,north,8.9,No
2017/01/05,19:40,0.396,0.238,0.409,0.378,0.343,0.196,0.167,north-northwest,8.9,No
2017/01/05,19:50,0.396,0.237,0.409,0.379,0.342,0.195,0.167,north-northwest,7.5,No
2017/01/05,20:00,0.396,0.237,0.408,0.377,0.342,0.194,0.167,north-northwest,8.1,No
2017/01/05,20:10,0.396,0.239,0.409,0.379,0.342,0.196,0.169,north,9.0,No
2017/01/05,20:20,0.396,0.238,0.408,0.378,0.341,0.195,0.168,north-northwest,10.6,No
2017/01/05,20:30,0.395,0.237,0.408,0.378,0.341,0.196,0.167,north-northwest,8.9,No
2017/01/05,20:40,0.395,0.235,0.408,0.377,0.340,0.195,0.168,north-northwest,9.8,No
2017/01/05,20:50,0.393,0.238,0.408,0.378,0.342,0.194,0.167,north-northwest,10.1,No
2017/01/05,21:00,0.395,0.237,0.407,0.378,0.341,0.195,0.167,north-northwest,9.8,No
2017/01/05,21:10,0.397,0.237,0.409,0.377,0.342,0.195,0.167,north,6.8,No
2017/01/05,21:20,0.397,0.238,0.408,0.377,0.340,0.196,0.167,north,7.8,No
2017/01/05,21:30,0.395,0.237,0.409,0.378,0.340,0.196,0.168,north,7.2,No
2017/01/05,21:40,0.395,0.238,0.408,0.378,0.342,0.194,0.167,north,7.9,No
2017/01/05,21:50,0.397,0.237,0.409,0.379,0.343,0.195,0.168,north,8.6,No
2017/01/05,22:00,0.396,0.238,0.409,0.379,0.343,0.195,0.166,north-northwest,8.8,No
2017/01/05,22:10,0.395,0.237,0.411,0.377,0.342,0.196,0.167,north,9.4,No
2017/01/05,22:20,0.396,0.237,0.409,0.378,0.341,0.195,0.167,north-northwest,8.4,No
2017/01/05,22:30,0.394,0.238,0.407,0.379,0.340,0.195,0.167,north-northwest,10.2,No
2017/01/05,22:40,0.396,0.237,0.409,0.378,0.343,0.194,0.167,north-northwest,10.4,No
2017/01/05,22:50,0.396,0.236,0.409,0.376,0.343,0.195,0.166,north-northwest,9.5,No
2017/01/05,23:00,0.396,0.238,0.409,0.377,0.340,0.196,0.167,north-northwest,10.5,No
2017/01/05,23:10,0.395,0.239,0.409,0.379,0.341,0.195,0.166,north-northwest,9.2,No
2017/01/05,23:20,0.396,0.237,0.408,0.377,0.341,0.196,0.167,north-northwest,10.9,No
2017/01/05,23:30,0.396,0.236,0.408,0.377,0.342,0.194,0.167,north-northwest,9.2,No
2017/01/05,23:40,0.395,0.239,0.408,0.377,0.342,0.195,0.167,north-northwest,6.7,No
2017/01/05,23:50,0.395,0.239,0.408,0.378,0.342,0.195,0.168,north,6.5,No
